Location: アルンシュタイン
(50.0000°N, 10.0000°E)
Time: 05:49:03
(UTC+01:00)

Envisat - Pass Details

Date: 30 October 2021
Orbit: 764 x 766 km, 98.2° (Epoch: 04 December)

Event Time Altitude Azimuth Distance (km) Brightness Sun altitude
Rises 05:53:10 0° 20° (NNE) 3,245 6.6 -21.9°
Reaches altitude 10° 05:55:38 10° 28° (NNE) 2,314 5.9 -21.5°
Maximum altitude 06:00:23 38° 96° (E) 1,153 4.5 -20.7°
Drops below altitude 10° 06:05:06 10° 165° (SSE) 2,296 5.6 -19.9°
Sets 06:07:32 0° 173° (S) 3,217 6.3 -19.5°
